Notices

What's New in latest Release from April 7th, 2021:

- Updated Glossary, including Speed of Maximum Gust, and Total Hourly Precipitation

- Updated national and regional climate services offices contacts and prices information

- Addition of station inventory lists for 1981-2010, 1971-2000, and 1961-1990 Normals.

If you haven't already, please take our survey and provide feedback about our website: https://eccc.sondage-survey.ca/f/LanguageSelection.aspx?s=442ca660-fcf1-47c0-95a9-59707d6fd709

Hourly Data Report for April 27, 2021

KUGAARUK CLIMATE
NUNAVUT
Current Station Operator: ECCC - MSC

68°32'15.060" N
89°47'47.020" W
15.80 m
2303094
71407
NBB

Download Data

Hourly Data (April 2021)
Hourly Data Report for April 27, 2021
TIME
LST
Temp Definition
°C
Dew Point Definition
°C
Rel Hum Definition
%
Precip. Amount Definition
mm

Wind Dir Definition
10's deg

Wind Spd Definition
km/h
Visibility Definition
km
Stn Press Definition
kPa
Hmdx Definition


Wind Chill Definition


Weather Definition


00:00 -20.2 -23.2 77 0.0 20 17   101.74   -30 LegendNANA
01:00 -23.3 -26.2 77 0.0 36 5   101.78   -28 LegendNANA
02:00 -26.9 -29.7 77 0.0 6 6   101.82   -33 LegendNANA
03:00 -27.7 -30.7 76 0.0 9 3   101.88   -31 LegendNANA
04:00 -28.7 -32.1 72 0.0 5 6   101.95   -35 LegendNANA
05:00 -27.7 -31.5 70 0.0 5 4   101.99   -32 LegendNANA
06:00 -26.0 -30.1 69 0.4 7 4   102.03   -30 LegendNANA
07:00 -24.5 -28.6 69 0.0 10 9   102.03   -32 LegendNANA
08:00 -23.8 -28.1 68 0.0 5 10   102.09   -32 LegendNANA
09:00 -20.4 -24.4 71 0.0 2 15   102.07   -30 LegendNANA
10:00 -18.6 -23.2 67 0.0 9 18   102.09   -28 LegendNANA
11:00 -17.5 -22.1 67 0.0 12 17   102.12   -27 LegendNANA
12:00 -15.2 -19.5 70 0.0 8 18   102.09   -24 LegendNANA
13:00 -14.1 -18.3 70 0.0 11 28   102.06   -25 LegendNANA
14:00 -13.1 -17.1 72 0.0 7 22   102.04   -22 LegendNANA
15:00 -12.7 -16.1 76 0.0 7 29   102.00   -23 LegendNANA
16:00 -13.1 -16.0 79 0.0 9 44   101.91   -25 LegendNANA
17:00 -13.5 -15.9 83 0.0 6 36   101.84   -25 LegendNANA
18:00 -13.3 -15.4 84 0.0 7 40   101.83   -25 LegendNANA
19:00 -13.0 -15.0 85 0.0 7 39   101.78   -25 LegendNANA
20:00 -12.2 -14.1 85 0.0 8 39   101.76   -24 LegendNANA
21:00 -11.9 -13.7 86 0.0 7 26   101.80   -21 LegendNANA
22:00 -12.3 -13.8 88 0.0 7 28   101.76   -22 LegendNANA
23:00 -8.8 -10.6 87 0.0 9 35   101.74   -19 LegendNANA

Notes on Data Quality.

Legend

  • E = Estimated
  • M = Missing
  • NA = Not Available*
  • [empty] = Indicates an unobserved value
Date modified: